Location: Bothwell
(41.7170°N, 112.2589°W)
Time: 17:29:21
(UTC+00:00)

Vanguard 2 - Pass Details

Date: 14 May 2026
Orbit: 553 x 2894 km, 32.9° (Epoch: 9 June)

Event Time Altitude Azimuth Distance (km) Brightness Sun altitude
Rises 05:50:19 0° 175° (S) 6,052 - -25.8°
Reaches altitude 10° 05:58:46 10° 148° (SSE) 5,478 - -26.4°
Maximum altitude 06:03:33 12° 131° (SE) 5,471 - -26.7°
Drops below altitude 10° 06:08:28 10° 114° (ESE) 5,701 - -27.1°
Exits shadow 06:09:17 - 111° (ESE) 5,760 11.6 -27.1°
Sets 06:17:41 0° 89° (E) 6,648 12.1 -27.6°
